When you browse on this site, cookies collect data to enhance your experience and personalize the content and advertising you see.
Visit our Privacy Policy to learn more. By continuing to use the site, you agree to this use of cookies and data.
  • In Latvia
  • List of Countries
  • For 7 days
  • Water Temperature
  • Satellite Maps
  • Weather Map
  • Weather Widgets
  • user-avatar
    Login

    Hourly Weather Yeghegnadzor

    Today, 19 June, Wednesday

    Time Temperature Precipitation Wind Pressure Humidity
    00:00 +19°C° 0.6 mm 4 mps 651 mmHg 76%
    01:00 +18°C° 0.1 mm 3 mps 651 mmHg 73%
    02:00 +18°C° 0.1 mm 2 mps 651 mmHg 71%
    03:00 +19°C° 0 mm 1 mps 651 mmHg 66%
    04:00 +19°C° 0 mm 1 mps 651 mmHg 65%
    05:00 +20°C° 0 mm 1 mps 651 mmHg 63%
    06:00 +21°C° 0 mm 1 mps 652 mmHg 62%
    07:00 +22°C° 0.1 mm 1 mps 652 mmHg 58%
    08:00 +24°C° 0.1 mm 1 mps 652 mmHg 53%
    09:00 +25°C° 0.1 mm 1 mps 652 mmHg 48%
    10:00 +26°C° 0.4 mm 1 mps 652 mmHg 46%
    11:00 +27°C° 0.4 mm 2 mps 652 mmHg 44%
    12:00 +27°C° 0.4 mm 2 mps 653 mmHg 43%
    13:00 +27°C° 0.9 mm 2 mps 652 mmHg 47%
    14:00 +26°C° 0.9 mm 3 mps 651 mmHg 52%
    15:00 +25°C° 0.9 mm 3 mps 651 mmHg 56%
    16:00 +24°C° 0.6 mm 3 mps 651 mmHg 59%
    17:00 +22°C° 0.6 mm 3 mps 651 mmHg 61%
    18:00 +22°C° 0.6 mm 3 mps 651 mmHg 63%
    19:00 +21°C° 0 mm 2 mps 651 mmHg 65%
    20:00 +20°C° 0 mm 2 mps 651 mmHg 66%
    21:00 +19°C° 0 mm 2 mps 651 mmHg 68%
    22:00 +18°C° 0 mm 2 mps 651 mmHg 67%
    23:00 +18°C° 0 mm 2 mps 651 mmHg 67%

    Tomorrow, 20 June, Thursday

    Time Temperature Precipitation Wind Pressure Humidity
    00:00 +18°C° 0 mm 1 mps 651 mmHg 67%
    01:00 +17°C° 0 mm 2 mps 651 mmHg 67%
    02:00 +17°C° 0 mm 2 mps 651 mmHg 68%
    03:00 +16°C° 0 mm 2 mps 651 mmHg 69%
    04:00 +18°C° 0 mm 1 mps 651 mmHg 67%
    05:00 +19°C° 0 mm 1 mps 651 mmHg 66%
    06:00 +20°C° 0 mm 1 mps 652 mmHg 64%
    07:00 +22°C° 0 mm 1 mps 652 mmHg 58%
    08:00 +24°C° 0 mm 1 mps 652 mmHg 52%
    09:00 +25°C° 0 mm 1 mps 653 mmHg 46%
    10:00 +26°C° 0 mm 1 mps 652 mmHg 43%
    11:00 +27°C° 0 mm 2 mps 652 mmHg 40%
    12:00 +28°C° 0 mm 2 mps 652 mmHg 37%
    13:00 +29°C° 0.1 mm 2 mps 652 mmHg 37%
    14:00 +29°C° 0.1 mm 2 mps 652 mmHg 36%
    15:00 +29°C° 0.1 mm 3 mps 651 mmHg 35%
    16:00 +29°C° 0.1 mm 2 mps 651 mmHg 38%
    17:00 +28°C° 0.1 mm 2 mps 651 mmHg 41%
    18:00 +28°C° 0.1 mm 1 mps 651 mmHg 44%
    19:00 +26°C° 0 mm 2 mps 650 mmHg 49%
    20:00 +24°C° 0 mm 2 mps 650 mmHg 55%
    21:00 +20°C° 0 mm 2 mps 650 mmHg 61%
    22:00 +20°C° 0.1 mm 2 mps 650 mmHg 62%
    23:00 +19°C° 0.1 mm 2 mps 650 mmHg 62%

    Day after tomorrow, 21 June, Friday

    Time Temperature Precipitation Wind Pressure Humidity
    00:00 +19°C° 0.1 mm 2 mps 650 mmHg 63%
    01:00 +18°C° 0.1 mm 2 mps 650 mmHg 64%
    02:00 +18°C° 0.1 mm 2 mps 650 mmHg 64%
    03:00 +17°C° 0.1 mm 2 mps 649 mmHg 65%
    04:00 +18°C° 0.1 mm 2 mps 650 mmHg 64%
    05:00 +20°C° 0.1 mm 1 mps 650 mmHg 63%
    06:00 +21°C° 0.1 mm 1 mps 651 mmHg 61%
    07:00 +23°C° 0.2 mm 1 mps 651 mmHg 57%
    08:00 +24°C° 0.2 mm 1 mps 651 mmHg 52%
    09:00 +26°C° 0.2 mm 1 mps 652 mmHg 47%
    10:00 +27°C° 0.4 mm 1 mps 652 mmHg 45%
    11:00 +28°C° 0.4 mm 1 mps 652 mmHg 43%
    12:00 +28°C° 0.4 mm 2 mps 652 mmHg 40%
    13:00 +28°C° 0.5 mm 2 mps 652 mmHg 42%
    14:00 +28°C° 0.5 mm 2 mps 652 mmHg 43%
    15:00 +28°C° 0.5 mm 2 mps 651 mmHg 44%
    16:00 +27°C° 0.5 mm 2 mps 651 mmHg 50%
    17:00 +26°C° 0.5 mm 2 mps 651 mmHg 55%
    18:00 +24°C° 0.5 mm 2 mps 651 mmHg 61%
    19:00 +23°C° 0.6 mm 2 mps 651 mmHg 66%
    20:00 +20°C° 0.6 mm 2 mps 651 mmHg 70%
    21:00 +19°C° 0.6 mm 2 mps 652 mmHg 75%
    22:00 +18°C° 0 mm 2 mps 652 mmHg 74%
    23:00 +18°C° 0 mm 2 mps 651 mmHg 73%

    22 June, Saturday

    Time Temperature Precipitation Wind Pressure Humidity
    00:00 +18°C° 0 mm 2 mps 651 mmHg 73%
    01:00 +17°C° 0 mm 2 mps 651 mmHg 72%
    02:00 +18°C° 0 mm 1 mps 651 mmHg 72%
    03:00 +18°C° 0 mm 1 mps 651 mmHg 72%
    04:00 +19°C° 0 mm 1 mps 652 mmHg 70%
    05:00 +20°C° 0 mm 1 mps 652 mmHg 68%
    06:00 +21°C° 0 mm 1 mps 653 mmHg 66%
    07:00 +22°C° 0 mm 1 mps 653 mmHg 61%
    08:00 +24°C° 0 mm 1 mps 654 mmHg 56%
    09:00 +26°C° 0 mm 1 mps 654 mmHg 51%
    10:00 +27°C° 0.1 mm 1 mps 654 mmHg 48%
    11:00 +28°C° 0.1 mm 1 mps 654 mmHg 46%
    12:00 +29°C° 0.1 mm 2 mps 654 mmHg 43%
    13:00 +29°C° 0.1 mm 2 mps 654 mmHg 43%
    14:00 +29°C° 0.1 mm 2 mps 654 mmHg 42%
    15:00 +30°C° 0.1 mm 2 mps 653 mmHg 41%
    16:00 +29°C° 0.1 mm 2 mps 653 mmHg 44%
    17:00 +29°C° 0.1 mm 2 mps 653 mmHg 47%
    18:00 +28°C° 0.1 mm 2 mps 653 mmHg 50%
    19:00 +26°C° 0 mm 2 mps 653 mmHg 55%
    20:00 +24°C° 0 mm 2 mps 653 mmHg 60%
    21:00 +21°C° 0 mm 2 mps 653 mmHg 66%
    22:00 +21°C° 0 mm 2 mps 653 mmHg 66%
    23:00 +20°C° 0 mm 2 mps 653 mmHg 66%

    23 June, Sunday

    Time Temperature Precipitation Wind Pressure Humidity
    00:00 +20°C° 0 mm 2 mps 653 mmHg 66%
    01:00 +20°C° 0 mm 2 mps 653 mmHg 66%
    02:00 +19°C° 0 mm 2 mps 653 mmHg 66%
    03:00 +19°C° 0 mm 2 mps 652 mmHg 66%
    04:00 +21°C° 0 mm 1 mps 653 mmHg 64%
    05:00 +22°C° 0 mm 1 mps 653 mmHg 63%
    06:00 +23°C° 0 mm 1 mps 654 mmHg 61%
    07:00 +24°C° 0 mm 1 mps 654 mmHg 56%
    08:00 +26°C° 0 mm 1 mps 654 mmHg 51%
    09:00 +28°C° 0 mm 1 mps 655 mmHg 45%
    10:00 +29°C° 0.1 mm 1 mps 655 mmHg 42%
    11:00 +30°C° 0.1 mm 1 mps 655 mmHg 39%
    12:00 +31°C° 0.1 mm 2 mps 655 mmHg 36%
    13:00 +31°C° 0 mm 2 mps 655 mmHg 35%
    14:00 +32°C° 0 mm 2 mps 654 mmHg 33%
    15:00 +33°C° 0 mm 3 mps 654 mmHg 31%
    16:00 +31°C° 0 mm 2 mps 654 mmHg 35%
    17:00 +31°C° 0 mm 2 mps 654 mmHg 39%
    18:00 +30°C° 0 mm 2 mps 653 mmHg 43%
    19:00 +28°C° 0 mm 2 mps 653 mmHg 49%
    20:00 +26°C° 0 mm 2 mps 653 mmHg 55%
    21:00 +24°C° 0 mm 3 mps 653 mmHg 61%
    22:00 +23°C° 0 mm 2 mps 653 mmHg 61%
    23:00 +21°C° 0 mm 2 mps 653 mmHg 62%

    24 June, Monday

    Time Temperature Precipitation Wind Pressure Humidity
    00:00 +21°C° 0 mm 2 mps 653 mmHg 63%
    01:00 +20°C° 0 mm 2 mps 653 mmHg 64%
    02:00 +20°C° 0 mm 2 mps 653 mmHg 65%
    03:00 +19°C° 0 mm 2 mps 652 mmHg 67%
    04:00 +20°C° 0 mm 2 mps 653 mmHg 65%
    05:00 +22°C° 0 mm 1 mps 653 mmHg 63%
    06:00 +23°C° 0 mm 1 mps 654 mmHg 61%
    07:00 +25°C° 0 mm 1 mps 654 mmHg 56%
    08:00 +27°C° 0 mm 1 mps 654 mmHg 50%
    09:00 +28°C° 0 mm 1 mps 655 mmHg 45%
    10:00 +29°C° 0.1 mm 1 mps 655 mmHg 42%
    11:00 +30°C° 0.1 mm 2 mps 655 mmHg 40%
    12:00 +31°C° 0.1 mm 2 mps 655 mmHg 38%
    13:00 +32°C° 0.1 mm 2 mps 654 mmHg 36%
    14:00 +32°C° 0.1 mm 2 mps 654 mmHg 35%
    15:00 +32°C° 0.1 mm 2 mps 654 mmHg 34%
    16:00 +32°C° 0.1 mm 2 mps 654 mmHg 37%
    17:00 +31°C° 0.1 mm 2 mps 653 mmHg 40%
    18:00 +30°C° 0.1 mm 2 mps 653 mmHg 43%
    19:00 +28°C° 0 mm 2 mps 653 mmHg 48%
    20:00 +26°C° 0 mm 2 mps 653 mmHg 54%
    21:00 +24°C° 0 mm 2 mps 653 mmHg 59%
    22:00 +23°C° 0 mm 2 mps 653 mmHg 61%
    23:00 +23°C° 0 mm 2 mps 653 mmHg 62%
    Show more